sat.trackr.live / text

‹ back to catalog

COSMOS 2538

NORAD 44424 · 2019-039D

PAYLOAD ACTIVE UNKNOWN

§ Identity

Operator
Country
CIS
Launch date
2019-07-10
Launch site
PLMSC
Launch vehicle
Mass (kg)
RCS (m²)

External: N2YO · Heavens-Above · Gunter

§ Orbital elements

Epoch: 2026-09-14T23:08:54.224736Z

Period
94.64 min
Inclination
97.5822°
Eccentricity
0.0042739
Mean motion
15.21564836 rev/d
Perigee alt
471.7 km
Apogee alt
530.5 km
Semi-major
6,879.3 km
B*
2.5464e-4
RAAN
338.0062°
Arg perigee
91.7014°
Mean anomaly
268.9118°
Rev number
39,355

§ Raw data

COSMOS 25381 44424U 19039D   26257.96451649  .00005811  00000+0  25464-3 0  99942 44424  97.5822 338.0062 0042739  91.7014 268.9118 15.21564836393553

JSON: /api/v1/satellites/44424 · /tle

For live sub-satellite position, see the globe view (requires WebGL).

§ Visibility from observer

Set your observer location to see the next 7 days of passes ≥ 10°. The values pass through the URL so the page stays shareable.

No JS? Fill the form by hand. The geolocation button needs JavaScript.